Location: Vassar Physics Lab
(41.6843°N, 73.8954°W)
Time: 08:27:34
(UTC-04:00)

CZ-4B DEB - Visible Passes

Search period start: 02 October 2014 00:00
Search period end: 12 October 2014 00:00
Orbit: 843 x 864 km, 98.8° (Epoch: 30 September)

Date Brightness Start Highest point End Pass type
(mag) Time Alt. Az. Time Alt. Az. Time Alt. Az.
02 Oct 4.4 04:23:11 10° NNE 04:28:46 72° ESE 04:30:20 48° S visible
02 Oct 5.7 06:05:23 10° NNW 06:08:53 17° WNW 06:12:23 10° W visible
03 Oct 4.7 04:12:19 10° NNE 04:17:49 58° E 04:19:10 46° SSE visible
03 Oct 5.5 05:54:03 10° NNW 05:58:07 21° WNW 06:01:13 14° WSW visible
04 Oct 5.1 04:01:30 10° NNE 04:06:51 46° E 04:07:59 41° SE visible
04 Oct 5.3 05:42:49 10° N 05:47:19 26° WNW 05:50:02 18° WSW visible
05 Oct 5.4 03:50:44 10° NNE 03:55:52 37° E 03:56:48 35° ESE visible
05 Oct 5.0 05:31:40 10° N 05:36:29 31° WNW 05:38:52 23° WSW visible
06 Oct 5.8 03:40:02 10° NE 03:44:52 30° E 03:45:37 29° ESE visible
06 Oct 4.7 05:20:33 10° N 05:25:39 38° WNW 05:27:41 29° WSW visible
07 Oct 6.1 03:29:24 10° NE 03:33:51 24° E 03:34:26 24° ESE visible
07 Oct 4.5 05:09:29 10° N 05:14:48 47° WNW 05:16:29 36° WSW visible
08 Oct 6.4 03:18:54 10° NE 03:22:49 19° E 03:23:14 19° E visible
08 Oct 4.2 04:58:27 10° N 05:03:55 58° WNW 05:05:18 45° WSW visible
09 Oct 6.7 03:08:35 10° NE 03:11:45 15° E 03:12:03 15° E visible
09 Oct 4.1 04:47:28 10° N 04:53:02 72° WNW 04:54:06 57° SW visible
09 Oct 6.1 06:31:27 10° NW 06:32:47 11° NW 06:34:06 10° WNW visible
10 Oct 6.9 02:58:40 10° ENE 03:00:40 12° E 03:00:51 12° E visible
10 Oct 4.1 04:36:31 10° NNE 04:42:07 88° WNW 04:42:55 67° SSW visible
10 Oct 5.9 06:19:26 10° NNW 06:22:02 14° WNW 06:24:38 10° W visible
11 Oct 4.3 04:25:36 10° NNE 04:31:11 75° ESE 04:31:43 69° SSE visible
11 Oct 5.7 06:07:54 10° NNW 06:11:16 17° WNW 06:13:46 13° W visible
